Location: Arcueil
(48.7999°N, 2.3326°E)
Time: 00:40:03
(UTC+00:00)

Cosmos 1726 Rocket - Pass Details

Date: 03 February 2023
Orbit: 602 x 627 km, 82.5° (Epoch: 01 April)

Event Time Altitude Azimuth Distance (km) Brightness Sun altitude
Rises 17:23:14 0° 359° (N) 2,869 6.8 -5.7°
Reaches altitude 10° 17:25:46 10° 13° (NNE) 1,960 5.8 -6.1°
Maximum altitude 17:29:25 26° 70° (ENE) 1,208 4.5 -6.7°
Drops below altitude 10° 17:33:02 10° 127° (SE) 1,949 5.8 -7.3°
Sets 17:35:32 0° 141° (SE) 2,849 6.7 -7.7°
